2019-093J (44887 NORAD) Tracking and Keplerian Element Data

This shows tracking and keplerian element data for the satellite.

Feedback or suggestion? Click here.




ElementValue
Catalog44887
Name2019-093J
Epoch Orbit503
Epoch Day23.13994879
Epoch Year2020
RAAN100.1297
Inclination97.9749
Eccentricity0.0015534
Argument of Perigee164.1501
Mean Anonmoly196.0206
Mean Motion14.82317645
Decay Rate6.9E-07
L11 44887U 19093J 20023.13994879 .00000069 00000-0 15396-4 0 9993
L22 44887 97.9749 100.1297 0015534 164.1501 196.0206 14.82317645 5037

Live tracking and technical data element details for 2019-093J (NORAD 44887). 2019-093J can be tracked NOW for your location showing map with azimuth and elevation plus other details from your city location.

Track the satellite on the map from your city or location and see movement details for azimuth, elevation, latitude, longitude, range, height, and movement on the map or in text.







IsCatalogInMostPopularTable: catalog: 44887, numindb: 6
Update: records affected: 1



GetName: 44887 2019-093J

Hit Count: updated at: Fri, 24 Jan 2020 10:25:59 GMT